Regional Weather Roundup
Issued by NWS

Home | Current Version | Previous Version | Text Only | Print | Product List | Glossary Off
Versions: 1 2 3 4 5 6 7 8 9 10 11 12 13 14 15 16 17 18 19 20 21 22 23 24 25 26 27 28 29 30 31 32 33 34 35 36 37 38 39 40 41 42 43 44 45 46 47 48 49 50

000
ASUS43 KIND 070909
RWRIN

WEATHER ROUNDUP FOR INDIANA
NATIONAL WEATHER SERVICE INDIANAPOLIS IN
500 AM EDT TUE JUL 07 2015

NOTE: "FAIR" INDICATES FEW OR NO CLOUDS BELOW 12,000 FEET WITH NO
SIGNIFICANT WEATHER AND/OR OBSTRUCTIONS TO VISIBILITY.

* - STATION DOES NOT REPORT WEATHER SUCH AS PRECIPITATION OR FOG.

+ - STATION NOT QUALITY CONTROLLED BY THE NATIONAL WEATHER SERVICE.
    USE DATA WITH CAUTION...ESPECIALLY DEWPOINT AND RELATIVE
    HUMIDITY OBSERVATIONS.

INZ001>003-010>013-019-020-071000-
NORTHWEST INDIANA

CITY           SKY/WX    TMP DP  RH WIND       PRES   REMARKS
GARY /AIRPORT/ RAIN     N/A N/A N/A CALM      29.85F
KNOX *+        CLOUDY    72  72 100 SW21      29.83F VSB 3/4
LA PORTE +     CLOUDY    75  75 100 W6        29.86F
MICHIGAN CITY+ RAIN      70  70 100 W5        29.85F
MONTICELLO +   CLOUDY    75  74  96 S16       29.86F
RENSSELAER +   CLOUDY    73  73 100 W5        29.86S
VALPARAISO     LGT RAIN  72  70  93 W6        29.85F

$$

LMZ046-743>745-071000-
SOUTHERN LAKE MICHIGAN

STATION/POSITION TIME  TEMP    WIND        PRES    WAVE
                       AIR SEA DIR/SP/G            HT
                 (UTC) (F)     (DEG/KT/KT) (MB)    (FT)
BURNS HARBOR     0900   72     180/  5/  8 1011.5S
MICHIGAN CITY    0900   71     190/  9/ 12   N/A
5NW MICH CITY    0900   70 68  240/  6/  8   N/A     1

$$

INZ004-005-014>016-021>024-071000-
NORTH CENTRAL INDIANA

CITY           SKY/WX    TMP DP  RH WIND       PRES   REMARKS
GOSHEN         CLOUDY    76  71  85 SW12      29.86F
LOGANSPORT +   MOCLDY    73  70  88 S9        29.89F
PERU/GRISSOM   MOCLDY    75  72  90 SW14      29.88F
ROCHESTER +    MOCLDY    77  73  88 S9        29.87F
SOUTH BEND     CLOUDY    75  72  90 SW7       29.85F
WARSAW +         N/A     73  72  94 S5        29.87F

$$

INZ006>009-017-018-025>027-071000-
NORTHEAST INDIANA

CITY           SKY/WX    TMP DP  RH WIND       PRES   REMARKS
ANGOLA *+        N/A     75  70  83 SW9       29.88F
AUBURN +       CLOUDY    73  70  88 SW6       29.90S
FORT WAYNE     CLOUDY    75  71  87 SW12      29.90F
HUNTINGTON +   CLOUDY    75  71  89 S7        29.90F

$$

INZ028-029-035-036-043>045-051>053-071000-
WEST CENTRAL INDIANA

CITY           SKY/WX    TMP DP  RH WIND       PRES   REMARKS
CRAWFORDSVL +  CLOUDY    74  71  90 SW10G17   29.91F
GREENCASTLE +  CLOUDY    73  68  83 S6        29.93F
LAFAYETTE      CLOUDY    76  72  87 SW9       29.87F
TERRE HAUTE    CLOUDY    76  73  91 S10       29.91F

$$

INZ030>032-037>040-046>048-054>057-064-065-071000-
CENTRAL INDIANA

CITY           SKY/WX    TMP DP  RH WIND       PRES   REMARKS
CP ATTERBURY + CLOUDY    73  70  88 SW7       29.95F
FRANKFORT +    CLOUDY   N/A N/A N/A S8        29.92F
GREENWOOD *+   CLOUDY    75  70  83 SW6       29.95F
INDIANAPOLIS   CLOUDY    76  70  82 S13       29.91F
-EAGLE CREEK   CLOUDY    76  72  87 S7        29.92F
KOKOMO *+      MOCLDY    75  70  83 SW10      29.90F
MARION +       CLOUDY    73  71  92 S8        29.92F
MT COMFORT *+  CLOUDY    73 N/A N/A S5        29.94F
SHELBYVILLE    CLOUDY    75  71  87 S6        29.94F
ZIONSVILLE +   CLOUDY    76  70  82 SW13      29.93F

$$

INZ033-034-041-042-049-050-058-059-071000-
EAST CENTRAL INDIANA

CITY           SKY/WX    TMP DP  RH WIND       PRES   REMARKS
MUNCIE         CLOUDY    76  71  85 SW12      29.93F

$$

INZ060-061-067>069-081>083-085>088-071000-
SOUTHWEST INDIANA

CITY           SKY/WX    TMP DP  RH WIND       PRES   REMARKS
EVANSVILLE     MOCLDY    77  72  84 SW10      29.96F
HUNTINGBURG *+ CLOUDY    75  72  88 S9        29.97S
WASHINGTON +   CLOUDY    75  72  88 SW8       29.94F

$$

INZ062-063-066-070>080-084-089>092-071000-
SOUTH CENTRAL AND SOUTHEAST INDIANA

CITY           SKY/WX    TMP DP  RH WIND       PRES   REMARKS
BLOOMINGTON    CLOUDY    76  72  87 SW8       29.95S
MADISON *+     CLOUDY    73  70  88 S6        30.01S
NORTH VERNON + CLOUDY    75  75 100 S8        29.98S
SEYMOUR +      CLOUDY    75  73  94 S7        29.96F

$$



USA.gov is the U.S. government's official web portal to all federal, state and local government web resources and services.